This demonstration page uses our WeatherBlox Daily Observations layout. Learn more.

Left ArrowRight Arrow

Hourly Observations for December 10, 2021

Temp ( °F °C ) Dew Point ( °F °C ) Humidity (%) Winds ( mph kmh ) Pressure ( in mb ) Visibility ( mi km ) Precip ( " mm )
12:51 am 00:51 Mostly Cloudy 37 2.8 22 -5.6 54 54 S 6 9 30.20 1023 10 16 0.00 0.00
1:51 am 01:51 Mostly Cloudy 38 3.3 22 -5.6 52 52 S 7 11 30.20 1023 10 16 0.00 0.00
2:51 am 02:51 Cloudy 38 3.3 22 -5.6 52 52 S 6 9 30.19 1023 10 16 0.00 0.00
3:51 am 03:51 Cloudy 38 3.3 24 -4.4 57 57 S 7 11 30.18 1022 10 16 0.00 0.00
4:51 am 04:51 Cloudy 38 3.3 25 -3.9 60 60 SSW 6 9 30.16 1021 10 16 0.00 0.00
5:51 am 05:51 Cloudy 39 3.9 27 -2.8 62 62 S 5 7 30.16 1021 10 16 0.00 0.00
6:51 am 06:51 Cloudy 40 4.4 29 -1.7 65 65 S 5 7 30.16 1021 10 16 0.00 0.00
7:51 am 07:51 Cloudy 41 5 30 -1.1 65 65 SSW 6 9 30.16 1021 10 16 0.00 0.00
8:51 am 08:51 Cloudy 43 6.1 31 -0.6 63 63 VRB 7 11 30.19 1022 10 16 0.00 0.00
9:51 am 09:51 Cloudy 45 7.2 31 -0.6 58 58 VRB 7 11 30.18 1022 10 16 0.00 0.00
10:51 am 10:51 Cloudy 47 8.3 32 0 56 56 SSW 8 13 30.15 1021 10 16 0.00 0.00
11:51 am 11:51 Cloudy 47 8.3 32 0 56 56 SW 9 15 30.14 1021 10 16 0.00 0.00
12:51 pm 12:51 Cloudy 47 8.3 32 0 56 56 SW 7 11 30.12 1020 10 16 0.00 0.00
1:51 pm 13:51 Cloudy 48 8.9 31 -0.6 52 52 VRB 5 7 30.11 1020 10 16 0.00 0.00
2:51 pm 14:51 Cloudy 48 8.9 31 -0.6 52 52 Calm 30.11 1020 10 16 0.00 0.00
3:51 pm 15:51 Sunny 47 8.3 31 -0.6 54 54 Calm 30.11 1020 10 16 0.00 0.00
4:51 pm 16:51 Clear 46 7.8 31 -0.6 56 56 Calm 30.14 1021 10 16 0.00 0.00
5:51 pm 17:51 Clear 45 7.2 31 -0.6 58 58 Calm 30.13 1020 10 16 0.00 0.00
6:51 pm 18:51 Clear 42 5.6 30 -1.1 62 62 Calm 30.14 1021 10 16 0.00 0.00
7:51 pm 19:51 Cloudy 44 6.7 33 0.6 65 65 NNW 3 6 30.14 1021 10 16 0.00 0.00
8:51 pm 20:51 Partly Cloudy 42 5.6 32 0 68 68 Calm 30.13 1020 10 16 0.00 0.00
9:51 pm 21:51 Mostly Cloudy 42 5.6 32 0 68 68 Calm 30.10 1019 10 16 0.00 0.00
10:51 pm 22:51 Cloudy 42 5.6 33 0.6 71 71 NNE 3 6 30.10 1019 10 16 0.00 0.00
11:51 pm 23:51 Cloudy 43 6.1 33 0.6 68 68 N 3 6 30.09 1019 10 16 0.00 0.00

Powered by AerisWeather